Home > Weather > Lafayette > Past weeks

Flag for USA Past Weather in Lafayette, Indiana, USA — Yesterday and Last 2 Weeks

Now
79 °F

Sunny.


Feels Like: 82 °F
Forecast: 74 / 90 °F
Wind: 6 mph from North

Location: Purdue University Airport

Current Time: Jul 24, 2016 at 10:51:19 AM

Latest Report: Jul 24, 2016 at 9:54 AM


Visibility: 10 mi

Pressure: 29.97 "Hg

Humidity: 79%

Dew Point: 72 °F

Location of LafayetteLocation

Past Weather in Lafayette — Graph

°F

Lafayette Temperature Yesterday

Maximum temperature yesterday: 89 °F (at 2:54 PM)
Minimum temperature yesterday: 70 °F (at 4:54 AM)
Average temperature yesterday: 79 °F

High & Low Weather Summary for the Past Weeks

 TemperatureHumidityPressure
High89 °F (Jul 21, 2:54 PM)100% (Jul 10, 1:54 AM)30.24 "Hg (Jul 10, 1:54 AM)
Low55 °F (Jul 10, 6:54 AM)51% (Jul 10, 4:54 PM)29.83 "Hg (Jul 12, 3:54 PM)
Average75 °F84%30.03 "Hg
* Reported Jul 9 8:54 AM — Jul 24 8:54 AM, Lafayette, Weather by CustomWeather, © 2016

Note: Actual official high and low records may vary slightly from our data, if they occured in-between our weather recording intervals... More about our weather records

Advertising

Lafayette Weather History for the Previous 24 Hours

Scroll right to see more
 ConditionsComfort  
Time TempWeatherWind HumidityBarometerVisibility
8:54 AM
Sun, Jul 24
75 °FSunny.5 mph85%29.96 "Hg10 mi
7:54 AM72 °FScattered clouds.3 mph91%29.96 "Hg10 mi
6:54 AM70 °FPassing clouds.3 mph97%29.95 "Hg10 mi
5:54 AM70 °FClear.No wind97%29.95 "Hg10 mi
4:54 AM71 °FClear.5 mph93%29.94 "Hg10 mi
3:54 AM72 °FClear.6 mph91%29.96 "Hg10 mi
2:54 AM73 °FMostly cloudy.10 mph88%29.99 "Hg10 mi
1:54 AM77 °FClear.No wind96%29.97 "Hg8 mi
12:54 AM77 °FFog.No wind96%29.96 "Hg6 mi
11:54 PM
Sat, Jul 23
78 °FClear.No wind96%29.93 "Hg7 mi
10:54 PM78 °FClear.No wind96%29.96 "Hg9 mi
9:54 PM80 °FSunny.No wind90%29.94 "Hg10 mi
8:54 PM83 °FSunny.No wind82%29.91 "Hg10 mi
7:54 PM86 °FSunny.3 mph75%29.92 "Hg10 mi
6:54 PM86 °FPassing clouds.5 mph75%29.92 "Hg10 mi
5:54 PM87 °FSunny.6 mph69%29.93 "Hg10 mi
4:54 PM89 °FSunny.6 mph63%29.95 "Hg10 mi
3:54 PM88 °FScattered clouds.6 mph65%29.96 "Hg10 mi
2:54 PM89 °FSunny.6 mph65%29.98 "Hg10 mi
1:54 PM87 °FPartly sunny.5 mph67%29.98 "Hg10 mi
12:54 PM86 °FOvercast.6 mph72%29.99 "Hg10 mi
11:54 AM83 °FScattered clouds.5 mph77%29.99 "Hg10 mi
10:54 AM81 °FPartly sunny.3 mph82%29.99 "Hg10 mi
Weather by CustomWeather, © 2016

See weather overviewHow to use our weather pages